Regional Weather Roundup
Issued by NWS Memphis, TN

Home | Current Version | Previous Version | Text Only | Print | Product List | Glossary On
Versions: 1 2 3 4 5 6 7 8 9 10 11 12 13 14 15 16 17 18 19 20 21 22 23 24 25 26 27 28 29 30 31 32 33 34 35 36 37 38 39 40 41 42 43 44 45 46 47 48 49 50
000
ASUS44 KMEG 031910
RWRMEG
MEMPHIS CWA HOURLY WEATHER ROUNDUP
NATIONAL WEATHER SERVICE MEMPHIS TN
100 PM CST TUE MAR 03 2015

...WEST TENNESSEE...

CITY           SKY/WX    TMP DP  RH WIND       PRES   REMARKS
MEMPHIS INTL   DRZL/FOG  57  54  89 S12G23    30.01F VSB 1/2
NWS MEMPHIS      N/A     57 N/A N/A MISG        N/A
JACKSON        CLOUDY    59  55  87 S13       29.98F
LEXINGTON      CLOUDY    55  55 100 S10       30.00F
SAVANNAH       CLOUDY    57  57 100 S8        30.03F
DYERSBURG      CLOUDY    55  43  62 S5        29.98F
UNION CITY     CLOUDY    54  54 100 SW10      29.94F
PARIS          CLOUDY    57  54  88 SW20      29.96F


...EASTERN ARKANSAS...

CITY           SKY/WX    TMP DP  RH WIND       PRES   REMARKS
JONESBORO      CLOUDY    45  44  97 SW14      29.97F
WEST MEMPHIS   CLOUDY    50  50 100 S10       29.98F FOG
BATESVILLE     CLOUDY    48  45  87 SW8       29.96F
NEWPORT        CLOUDY    47  44  89 S16       29.98F
WALNUT RIDGE   CLOUDY    45  37  76 SW16      29.94F
BLYTHEVILLE    CLOUDY    51  51 100 SW15      29.95F FOG
NW BLYTHEVILLE FOG       50  48  93 SW12G21   29.96F VSB 1/2
SEARCY         CLOUDY    50  45  83 S9        29.98F
STUTTGART      CLOUDY    45  43  93 SW7       30.02F VSB 1
PINE BLUFF     FOG       47  46  97 S3        30.01F VSB 1/4
MONTICELLO     LGT RAIN  55  54  96 S9        30.01F FOG


...NORTH MISSISSIPPI...

CITY           SKY/WX    TMP DP  RH WIND       PRES   REMARKS
TUPELO         CLOUDY    57  56  96 S6        30.05F FOG
OXFORD         FOG       57  57 100 SE6       30.04F VSB 3/4
OLIVE BRANCH   CLOUDY    54  54 100 S10       30.02F FOG
TUNICA         LGT RAIN  52  52 100 SW10      30.03F
CLARKSDALE     CLOUDY    52  52 100 SW6       30.03F VSB 3/4
CORINTH        CLOUDY    57  55  94 S8        30.03F FOG
GREENWOOD      CLOUDY    72  65  78 SW12      30.02F
COLUMBUS       CLOUDY    61  61 100 S6        30.05F FOG
STARKVILLE     CLOUDY    64  63  94 S5        30.05F
GOLDEN TRIANGL CLOUDY    63  61  94 S7        30.06F


...SOUTHEAST MISSOURI...

CITY           SKY/WX    TMP DP  RH WIND       PRES   REMARKS
WEST PLAINS    CLOUDY    49  45  86 SW13G21   29.86F
POPLAR BLUFF   CLOUDY    40  37  89 SW14      29.90F FOG     WCI  32
CAPE GIRARDEAU FOG       39  39 100 SW9       29.91F VSB 1/4 WCI  33


...NORTHWEST ALABAMA...

CITY           SKY/WX    TMP DP  RH WIND       PRES   REMARKS
MUSCLE SHOALS  CLOUDY    63  58  83 S7        30.06F


...MIDDLE TENNESSEE...

CITY           SKY/WX    TMP DP  RH WIND       PRES   REMARKS
NASHVILLE      CLOUDY    62  56  80 S14G21    30.01F
CLARKSVILLE    CLOUDY    61  58  90 SW16      29.95F
COLUMBIA       CLOUDY   N/A N/A N/A S12       30.01F


...WESTERN KENTUCKY...

CITY           SKY/WX    TMP DP  RH WIND       PRES   REMARKS
PADUCAH        FOG       49  48  97 SW12      29.91F VSB 1/4
FORT CAMPBELL  CLOUDY    58  56  91 SW13      29.94F


...CENTRAL ARKANSAS...

CITY           SKY/WX    TMP DP  RH WIND       PRES   REMARKS
LITTLE ROCK    CLOUDY    47  42  83 S7        30.00F


SKY/WX REPORTED AS FAIR MEANS FEW OR NO CLOUDS BELOW
12 THOUSAND FEET.



USA.gov is the U.S. government's official web portal to all federal, state and local government web resources and services.